Location: Marcé
(47.5801°N, 0.3280°W)
Time: 21:21:42
(UTC+01:00)

Tiros 1 - Pass Details

Date: 03 December 2021
Orbit: 630 x 663 km, 48.4° (Epoch: 20 January)

Event Time Altitude Azimuth Distance (km) Brightness Sun altitude
Rises 22:43:22 0° 274° (W) 2,939 - -54.0°
Reaches altitude 10° 22:45:41 10° 275° (W) 2,036 - -54.3°
Maximum altitude 22:50:23 81° 2° (N) 660 - -54.9°
Drops below altitude 10° 22:55:08 10° 91° (E) 2,057 - -55.6°
Sets 22:57:30 0° 93° (E) 2,973 - -55.9°
